Track COSMOS 2435 (GLONASS) now! COSMOS 2435 (GLONASS) is classified as:
1 32394U 07065B 25187.50855979 .00000113 00000-0 00000-0 0 9995 2 32394 64.3207 203.5713 0024461 354.6112 5.4205 2.13115484136370